Probability
0 0 0 0 0 0 0 0 0 0 0 0 0 0 0 0 0 0 0 0 0 0 0 0 0 0 0 0 0 0 0 0 0 0 0 0 0 0 0 0 0 0 0 0
0 0 0 0 0 0 0 0 0 0 0 0 0 0 0 0 0 0 0 0 0 0 0 0 0 0 0 0 0 0 0 0 0 0 0 0 0 0 0 0 0 0 0 0
0 0 0 0 0 0 0 0 0 0 0 0 0 0 0 0 0 0 0 0 0 0 0 0 0 0 0 0 0 0 0 0 0 0 0 0 0 0 0 0 0 0 0 0
0 0 0 0 0 0 0 0 0 0 0 0 0 0 0 0 0 0 0 0 0 0 0 0 0 0 0 0 0 0 0 0 0 0 0 0 0 0 0 0 0 0 0 0
0 0 0 0 0 0 0 0 0 0 0 0 0 0 0 0 0 0 0 0 0 0 0 0 0 0 0 0 0 0 0 0 0 0 0 0 0 0 0 0 0 0 0 0
0 0 0 0 0 0 0 0 0 0 0 0 0 0 0 0 0 0 0 0 0 0 0 0 0 0 0 0 0 0 0 0 0 0 0 0 0 0 0 0 0 0 0 0
0 0 0 0 0 0 0 0 0 0 0 0 0 0 0 0 0 0 0 0 0 0 0 0 0 0 0 0 0 0 0 0 0 0 0 0 0 0 0 0 0 0 0 0
0 0 0 0 0 0 0 0 0 0 0 0 0 0 0 0 0 0 0 0 0 0 0 0 0 0 0 0 0 0 0 0 0 0 0 0 0 0 0 0 0 0 0 0
0 0 0 0 0 0 0 0 0 0 0 0 0 0 0 0 0 0 0 0 0 0 0 0 0 0 0 0 0 0 0 0 0 0 0 0 0 0 0 0 0 0 0 0
0 0 0 0 0 0 0 0 0 0 0 0 0 0 0 0 0 0 0 0 0 0 0 0 0 0 0 0 0 0 0 0 0 0 0 0 0 0 0 0 0 0 0 0
0 0 0 0 0 0 0 0 0 0 0 0 0 0 0 0 0 0 0 0 0 0 0 0 0 0 0 0 0 0 0 0 0 0 0 0 0 0 0 0 0 0 0 0
0 0 0 0 0 0 0 0 0 0 0 0 0 0 0 0 0 0 0 0 0 0 0 0 0 0 0 0 0 0 0 0 0 0 0 0 0 0 0 0 0 0 0 0
0 0 0 0 0 0 0 0 0 0 0 0 0 0 0 0 0 0 0 0 0 0 0 0 0 0 0 0 0 0 0 0 0 0 0 0 0 0 0 0 0 0 0 0
0 0 0 0 0 0 0 0 0 0 0 0 0 0 0 0 0 0 0 0 0 0 0 0 0 0 0 0 0 0 0 0 0 0 0 0 0 0 0 0 0 0 0 0
0 0 0 0 0 0 0 0 0 0 0 0 0 0 0 0 0 0 0 0 0 0 0 0 0 0 0 0 0 0 0 0 0 0 0 0 0 0 0 0 0 0 0 0
0 0 0 0 0 0 0 0 0 0 0 0 0 0 0 0 0 0 0 0 0 0 0 0 0 0 0 0 0 0 0 0 0 0 0 0 0 0 0 0 0 0 0 0
0 0 0 0 0 0 0 0 0 0 0 0 0 0 0 0 0 0 0 0 0 0 0 0 0 0 0 0 0 0 0 0 0 0 0 0 0 0 0 0 0 0 0 0
0 0 0 0 0 0 0 0 0 0 0 0 0 0 0 0 0 0 0 0 0 0 0 0 0 0 0 0 0 0 0 0 0 0 0 0 0 0 0 0 0 0 0 0
0 0 0 0 0 0 0 0 0 0 0 0 0 0 0 0 0 0 0 0 0 0 0 0 0 0 0 0 0 0 0 0 0 0 0 0 0 0 0 0 0 0 0 0
0 0 0 0 0 0 0 0 0 0 0 0 0 0 0 0 0 0 0 0 0 0 0 0 0 0 0 0 0 0 0 0 0 0 0 0 0 0 0 0 0 0 0 0
0 0 0 0 0 0 0 0 0 0 0 0 0 0 0 0 0 0 0 0 0 0 0 0 0 0 0 0 0 0 0 0 0 0 0 0 0 0 0 0 0 0 0 0
0 0 0 0 0 0 0 0 0 0 0 0 0 0 0 0 0 0 0 0 0 0 0 0 0 0 0 0 0 0 0 0 0 0 0 0 0 0 0 0 0 0 0 0
0 0 0 0 0 0 0 0 0 0 0 0 0 0 0 0 0 0 0 0 0 0 0 0 0 0 0 0 0 0 0 0 0 0 0 0 0 0 0 0 0 0 0 0
0 0 0 0 0 0 0 0 0 0 0 0 0 0 0 0 0 0 0 0 0 0 0 0 0 0 0 0 0 0 0 0 0 0 0 0 0 0 0 0 0 0 0 0
0 0 0 0 0 0 0 0 0 0 0 0 0 0 0 0 0 0 0 0 0 0 0 0 0 0 0 0 0 0 0 0 0 0 0 0 0 0 0 0 0 0 0 0
0 0 0 0 0 0 0 0 0 0 0 0 0 0 0 0 0 0 0 0 0 0 0 0 0 0 0 0 0 0 0 0 0 0 0 0 0 0 0 0 0 0 0 0
Wind_Speed
6 4 6 4 3 6 7 8 10 11 3 2 8 14 17 11 4 6 6 7 7 6 6 1 6 10 10 11 11 12 13 13 11 10 11 11 11 9 8 8 11 12 12 13
5 6 4 4 3 3 6 9 10 8 4 5 9 13 14 2 5 4 5 6 7 8 8 7 3 5 8 10 10 11 13 14 13 11 10 8 7 7 7 7 9 12 13 14
9 2 2 2 5 7 8 7 6 7 9 9 7 9 2 6 8 7 7 7 7 7 7 6 4 2 5 7 9 9 11 12 13 11 6 5 5 5 7 9 9 11 13 14
5 2 2 2 6 5 6 4 5 6 6 6 5 6 6 6 8 7 7 7 6 6 5 5 4 2 2 6 7 8 8 9 10 10 9 10 10 12 12 8 7 9 12 13
4 3 1 4 3 3 3 3 5 6 5 6 5 5 8 4 7 7 7 6 6 6 7 6 5 4 1 2 5 6 7 8 8 10 11 10 11 10 6 6 8 10 11 13
6 3 0 2 1 1 5 6 7 3 2 4 4 4 7 1 6 7 7 6 7 7 8 8 7 6 4 2 2 4 5 6 7 9 10 12 13 10 9 9 9 9 8 10
6 6 3 0 3 5 4 4 2 2 3 4 2 2 7 1 7 8 7 6 7 7 7 7 8 7 6 4 0 3 4 6 6 8 10 11 12 12 12 11 9 9 8 9
3 5 6 5 2 2 2 2 3 3 4 3 2 6 6 2 6 7 7 6 6 7 6 6 6 6 5 5 3 1 4 6 7 7 9 9 10 9 9 11 10 10 9 9
4 2 3 2 1 2 3 2 2 2 5 5 6 5 3 2 6 7 6 6 6 5 5 5 5 5 4 4 3 2 2 4 5 7 8 8 9 10 10 10 10 9 9 8
3 4 4 4 2 3 3 5 2 3 4 5 6 6 3 3 2 4 5 5 5 4 5 5 5 5 4 3 2 1 1 2 4 5 6 6 8 9 9 9 11 11 11 9
2 4 2 4 7 7 5 3 4 4 4 3 5 5 3 2 3 4 4 5 5 4 4 3 4 5 4 5 4 3 2 2 3 4 5 6 7 8 8 9 10 11 10 10
1 3 5 5 2 3 1 3 4 4 6 4 5 7 2 4 4 5 5 4 4 3 2 3 4 5 5 6 6 5 4 3 3 4 5 6 7 7 7 9 10 9 10 10
1 2 5 2 2 2 1 3 4 4 4 5 6 9 2 4 5 5 5 4 3 2 2 3 4 5 6 6 6 6 5 5 4 4 5 6 7 7 8 9 9 9 10 10
2 3 5 7 8 5 5 6 6 6 6 8 11 13 12 11 7 5 5 5 5 5 5 4 4 5 6 7 6 6 6 6 6 5 6 7 7 7 8 8 8 8 9 10
2 5 8 10 11 10 12 12 11 12 12 14 15 16 15 6 4 5 6 7 7 7 6 5 5 6 7 7 6 6 7 7 6 6 7 8 8 7 7 7 8 8 9 10
3 4 6 9 10 12 16 16 14 14 14 14 15 14 3 4 4 6 7 8 9 7 6 7 8 8 8 7 7 7 7 7 7 8 9 9 8 7 7 8 9 9 10 9
5 4 4 5 6 10 12 11 9 6 5 6 7 5 4 4 5 6 8 9 7 8 9 9 9 8 7 7 7 7 7 7 8 9 10 9 8 8 8 9 9 10 10 10
5 4 3 4 5 9 9 3 1 1 5 6 6 3 5 5 5 6 7 6 8 10 10 9 8 7 7 7 8 8 8 8 9 10 10 9 8 8 9 9 10 10 9 9
2 4 4 3 4 10 9 4 2 1 4 4 4 5 7 7 7 6 6 9 9 10 9 8 6 6 7 8 8 8 9 9 10 10 10 8 8 9 9 10 10 10 9 9
1 2 4 4 4 8 3 3 3 2 2 6 7 7 8 8 8 6 8 10 10 9 8 7 7 7 8 9 9 9 10 10 11 10 9 8 8 9 10 11 10 9 8 9
3 4 5 5 6 10 2 3 1 1 1 3 5 6 6 6 6 9 10 9 9 8 8 7 7 7 8 9 10 11 11 11 10 10 9 9 9 9 10 10 9 9 8 8
6 6 7 6 6 9 2 2 1 4 5 6 6 6 7 8 9 10 9 9 8 7 7 8 7 8 9 9 10 12 12 11 10 10 10 10 9 9 9 10 10 8 8 9
6 5 4 6 7 2 2 2 4 5 5 5 6 7 7 8 9 9 8 7 7 8 8 7 8 10 10 10 10 13 13 11 11 11 10 10 10 9 9 9 10 9 7 7
4 3 3 5 5 6 7 7 6 7 6 7 6 7 6 7 7 7 6 7 7 8 8 8 10 12 12 11 10 11 12 12 12 12 11 9 9 10 9 7 7 7 7 7
5 4 4 9 8 8 5 6 8 8 7 7 7 6 6 6 6 6 6 8 8 8 8 8 10 12 14 12 11 11 12 12 12 11 10 9 9 10 9 8 8 9 8 9
4 6 7 8 5 5 6 7 8 8 7 6 6 6 6 5 6 7 7 7 8 9 9 10 11 12 13 13 13 12 11 11 11 10 9 8 8 8 9 10 10 13 15 19
Wind_Direction
210 235 258 299 8 347 333 309 298 295 349 326 277 287 297 304 350 22 23 18 10 354 346 360 176 177 172 176 179 177 181 184 184 190 196 201 208 208 207 203 199 195 194 195
245 245 280 18 18 317 289 285 287 297 18 315 281 289 284 259 93 74 56 48 34 16 12 14 68 144 168 176 182 180 183 186 191 198 201 204 203 208 212 209 207 200 196 196
256 248 81 345 298 278 279 285 308 327 327 279 269 298 252 127 110 92 72 63 53 38 27 16 27 142 172 185 188 193 191 191 194 193 190 199 204 210 213 213 212 207 201 200
280 71 65 289 275 279 286 15 347 325 322 308 337 305 286 156 121 105 84 63 51 41 38 32 22 13 205 204 193 194 195 195 192 189 199 203 210 219 220 215 213 211 209 207
276 132 212 271 323 1 307 349 288 290 290 288 255 236 279 183 130 112 97 73 51 40 36 31 32 12 346 199 190 193 198 202 195 196 203 211 224 230 230 219 217 215 215 215
252 119 225 342 41 267 304 289 253 238 261 264 228 209 285 13 106 103 86 68 48 37 33 25 20 17 18 47 158 186 205 217 208 204 207 212 224 228 230 228 226 221 218 217
207 175 146 121 255 195 237 291 304 229 219 232 115 232 253 346 89 91 80 61 49 44 36 25 20 15 14 15 162 194 212 232 226 217 217 220 223 225 231 232 230 227 225 221
276 178 166 187 266 338 295 311 312 300 294 322 235 238 252 98 99 100 93 77 58 51 43 32 23 18 14 14 10 231 220 229 229 227 227 226 226 226 233 233 232 233 231 225
323 78 112 123 91 278 279 224 52 324 288 269 250 243 256 108 106 95 85 71 62 55 46 34 19 15 15 14 4 350 278 244 233 229 230 230 228 228 232 232 233 238 238 230
320 300 166 145 182 226 289 328 306 242 267 280 275 256 228 136 82 81 79 75 72 65 47 31 8 360 360 359 337 344 309 274 253 241 237 235 232 232 233 232 235 237 239 236
290 276 212 170 203 194 176 206 228 260 273 273 288 280 5 37 78 68 69 75 77 65 43 21 357 348 350 351 342 331 307 284 268 256 251 252 247 242 239 239 241 239 239 234
233 301 276 251 71 61 144 243 242 247 264 257 273 275 318 102 83 68 66 63 73 67 32 2 352 344 344 341 333 330 320 307 287 270 263 261 259 254 248 247 247 242 242 238
67 264 282 242 66 31 220 231 239 265 285 264 261 267 301 6 28 58 60 37 33 25 356 340 342 335 333 329 325 325 324 322 310 296 283 277 272 265 259 256 253 247 244 243
14 256 248 269 295 317 279 261 238 232 246 255 247 271 298 318 349 37 32 14 3 342 322 318 327 326 324 319 319 323 323 319 311 302 292 286 280 274 270 270 269 263 255 250
227 255 263 273 288 296 290 280 270 260 258 264 274 282 292 325 36 27 9 353 333 314 310 326 329 320 315 315 318 321 316 311 307 303 296 287 283 283 283 282 279 274 267 260
212 267 280 275 278 279 277 270 264 262 259 261 273 279 301 70 36 12 353 330 310 314 334 337 326 317 314 317 318 317 310 307 309 303 293 286 285 284 281 279 278 275 270 265
197 218 277 277 297 303 275 261 246 236 245 264 274 294 28 22 14 352 324 308 323 343 337 323 315 314 317 318 317 311 304 307 307 300 294 291 287 284 281 280 280 275 271 265
248 255 266 279 300 252 250 293 142 280 291 294 297 5 36 9 345 320 309 339 345 334 324 318 318 320 318 315 311 305 305 307 301 296 293 291 289 286 284 282 279 276 271 264
289 221 236 250 264 276 276 293 36 9 296 334 22 21 352 338 330 315 343 354 333 323 319 318 321 322 319 313 308 308 305 299 295 293 292 293 293 291 289 286 282 278 275 270
317 221 215 214 228 253 284 81 61 27 282 33 16 349 340 347 327 310 339 330 322 322 322 325 326 323 314 307 310 308 300 296 294 293 294 298 298 294 292 287 286 285 280 276
164 192 212 229 239 260 283 137 110 240 285 1 350 344 347 334 301 308 324 323 320 320 324 324 321 313 303 304 306 300 297 296 296 300 301 300 296 293 292 291 290 289 287 284
180 190 197 198 221 252 140 135 252 300 339 353 1 356 338 319 313 317 320 322 325 325 321 317 312 303 300 302 302 300 298 299 302 302 299 296 294 294 295 292 291 288 288 289
214 218 213 205 222 264 128 314 324 356 356 2 352 335 325 317 315 319 320 321 318 311 307 306 303 301 299 299 300 300 302 306 307 303 299 297 296 293 290 290 293 294 290 287
249 230 253 281 284 317 325 331 357 12 1 346 336 329 326 316 315 316 314 309 304 300 300 302 303 301 301 301 301 301 306 307 304 302 300 296 297 296 292 288 287 288 285 283
281 321 286 272 285 297 308 358 357 351 344 335 331 328 322 313 306 304 301 296 295 298 297 298 298 299 302 307 307 304 302 303 300 297 295 296 294 294 294 289 285 284 272 273
236 250 259 271 309 321 324 341 343 338 331 328 325 317 313 303 294 291 287 288 293 298 300 302 301 301 303 304 301 300 299 299 301 302 300 297 295 294 292 293 292 284 282 290